Location: Dos Palmas
(32.4468°N, 116.8732°W)
Time: 00:44:52
(UTC+00:00)

Resurs 1-3 - Pass Details

Date: 20 June 2021
Orbit: 629 x 632 km, 97.9° (Epoch: 01 August)

Event Time Altitude Azimuth Distance (km) Brightness Sun altitude
Exits shadow 03:58:04 12° 157° (SSE) 1,854 5.5 -11.5°
Maximum altitude 04:02:01 66° 76° (ENE) 690 3.6 -12.2°
Drops below altitude 10° 04:06:22 10° 354° (N) 2,018 6.8 -12.9°
Sets 04:08:35 0° 352° (N) 2,930 7.8 -13.3°
